User: anonymous   Login
Location: Noordwijk
(52.2400°N, 4.4500°E)
Time: 03:44:09
(UTC+00:00)
Language:

First-Move - Orbit

View from above orbital plane
View from above orbital plane
View from above satellite
View from above satellite

Ground track
Ground track

The orbit data is extracted from the following two-line orbital elements,

1 39439U 13066Z   24107.86460440  .00034071  00000-0  28399-2 0  9998
2 39439  97.7194  71.9835 0048057 345.3585  14.6242 14.97612966561694
Epoch (UTC): 16 April 2024 20:45:01
Eccentricity: 0.0048057
inclination: 97.7194°
perigee height: 541 km
apogee height: 607 km
right ascension of ascending node: 71.9835°
argument of perigee: 345.3585°
revolutions per day: 14.97612966
mean anomaly at epoch: 14.6242°
orbit number at epoch: 56169

The dashed part of the orbit path shows where the satellite is in the earth's shadow,  

DLR